User: anonymous   Login
Location: Bauen
(46.9356°N, 8.5784°E)
Time: 21:22:33
(UTC+00:00)
Language:

Cosmos 1459 Rocket - Orbit

View from above orbital plane
View from above orbital plane
View from above satellite
View from above satellite

Ground track
Ground track

The orbit data is extracted from the following two-line orbital elements,

1 14059U 83042B   20158.58148171 +.00000091 +00000-0 +73380-4 0  9992
2 14059 082.9707 336.2409 0044054 098.0875 262.5285 13.78687474865043
Epoch (UTC): 06 June 2020 13:57:20
Eccentricity: 0.0044054
inclination: 82.9707°
perigee height: 936 km
apogee height: 1001 km
right ascension of ascending node: 336.2409°
argument of perigee: 98.0875°
revolutions per day: 13.78687474
mean anomaly at epoch: 262.5285°
orbit number at epoch: 86504

The dashed part of the orbit path shows where the satellite is in the earth's shadow,  

DLR